TDRS 10

Last updated on Jan. 22, 2020, 4:36 a.m. UTC

1 27566U 02055A   20021.33615747  .00000081  00000-0  00000+0 0  9997
2 27566   6.6503  54.3049 0008513 269.9469 105.8150  1.00277499 62776
UTC
Height (km)
Latitude
Longitude
Inclination
Orbital Period
UTC large
Height (km)
Speed (km/s)
/
Latitude / Longitude
Inclination (degrees)
Orbital Period (minutes)
Azimuth
Elevation
Range (km)
Doppler Factor
iOS Compass Heading
iOS Angle

Next 30 passes for location: Hong Kong

Rise time Rise Azimuth (degrees) Set time Set Azimuth (degrees) Duration Max altitude (degrees)

No matching passes for this satellites